{"data":{"norad_id":64518,"intl_designator":"2025-134U","name":"KUIPER-00058","alt_names":[],"object_type":"PAYLOAD","status":"ACTIVE","operator":null,"country":"US","launch_date":"2025-06-23","launch_site_code":"AFETR","launch_vehicle":null,"mission":null,"orbit_class":"UNKNOWN","rcs_meters":null,"size_class":null,"mass_kg":null,"dimensions":null,"purposes":[],"wikipedia_slug":null,"has_3d_model":false,"image_url":null,"decayed_at":null,"tle_current":{"epoch":"2026-09-21T21:07:18.481728Z","epoch_age_seconds":62561,"freshness":"FRESH","line1":"1 64518U 25134U   26264.88007502  .00000128  00000+0  45743-4 0  9996","line2":"2 64518  51.9003  77.9935 0000744 119.9588 240.1448 14.79932135 69237","mean_motion":14.79932135,"eccentricity":7.44e-5,"inclination_deg":51.9003,"raan_deg":77.9935,"arg_perigee_deg":119.9588,"mean_anomaly_deg":240.1448,"bstar":4.5743e-5,"rev_number":6923,"period_min":97.30175904316,"perigee_km":629.01698872021,"apogee_km":630.05973081374,"semimajor_km":7007.675359767,"source":"CELESTRAK","updated_at":"2026-09-22T09:00:29.811306Z"}}}